Regional Weather Roundup
Issued by NWS

Home | Current Version | Previous Version | Graphics & Text | Print | Product List | Glossary On
Versions: 1 2 3 4 5 6 7 8 9 10 11 12 13 14 15 16 17 18 19 20 21 22 23 24 25 26 27 28 29 30 31 32 33 34 35 36 37 38 39 40 41 42 43 44 45 46 47 48 49 50
000
ASUS43 KDTX 020810
RWRMI
MICHIGAN HOURLY REGIONAL WEATHER ROUNDUP
NATIONAL WEATHER SERVICE DETROIT/PONTIAC MI
ISSUED BY NATIONAL WEATHER SERVICE GRAND RAPIDS MI
300 AM EST FRI DEC 02 2016

NOTE: "FAIR" INDICATES FEW OR NO CLOUDS BELOW 12,000 FEET WITH NO
SIGNIFICANT WEATHER AND/OR OBSTRUCTION TO VISIBILITY.

MIZ047>049-052>055-059>063-066>070-074>076-081>083-020900-
SOUTHEAST LOWER MICHIGAN

CITY           SKY/WX    TMP DP  RH WIND       PRES   REMARKS
ADRIAN         MOCLDY    35  32  88 W7        29.97R WCI  29
ALMA           LGT SNOW  35  33  93 W9        29.91R WCI  28
ANN ARBOR      CLOUDY    37  34  89 SW12      29.93R WCI  29
BAD AXE        CLOUDY    37  32  81 W10G16    29.87R WCI  30
DETROIT CITY   CLOUDY    39  35  86 W10G18    29.92S WCI  32
DETROIT        CLOUDY    39  33  79 W14G21    29.95R WCI  31
FLINT          CLOUDY    39  35  86 W10       29.91R WCI  32
GROSSE ILE     MOCLDY    38  32  81 W9        29.94R WCI  31
HILLSDALE      CLOUDY    34  32  93 SW9       29.94R WCI  26
HOWELL         CLOUDY    37  35  92 W9        29.91S WCI  30

CITY           SKY/WX    TMP DP  RH WIND       PRES   REMARKS
JACKSON        LGT RAIN  37  32  82 W10       29.94R WCI  30
LANSING        CLOUDY    38  34  85 W9        29.93R WCI  31
MASON          CLOUDY    36  35  96 W5        29.93R WCI  32
MONROE         MOCLDY    36  33  88 W9        29.95R WCI  29
MT. CLEMENS    CLOUDY    41  36  81 SW12      29.89R
PONTIAC        CLOUDY    37  34  89 W12       29.89R WCI  29
PORT HOPE        N/A     38  30  73 W9G18     29.83R WCI  31
PORT HURON     CLOUDY    39  36  87 SW5       29.89R
TRI CITIES     CLOUDY    37  35  92 W8        29.90R WCI  31
YPSILANTI      CLOUDY    40  34  79 W14       29.94R WCI  32
$$
MIZ043>046-050>051-056>058-064>065-071>073-077>080-020900-
SOUTHWEST LOWER MICHIGAN

CITY           SKY/WX    TMP DP  RH WIND       PRES   REMARKS
BATTLE CREEK   CLOUDY    37  35  92 SW12      29.95R WCI  29
BENTON HARBOR  CLOUDY    41  32  70 W17       29.99R
BIG RAPIDS     CLOUDY    35  32  88 NW3       29.91R
COLDWATER      CLOUDY    37  32  84 W12       29.97R WCI  29
HOLLAND        LGT RAIN  39  34  82 W10       29.96R WCI  32
GRAND RAPIDS   CLOUDY    39  32  76 W8        29.94R WCI  33
KALAMAZOO      CLOUDY    37  33  85 SW10      29.96R WCI  30
MARSHALL       CLOUDY    36  35  94 SW10      29.95R WCI  29
MOUNT PLEASANT CLOUDY    36  33  91 W6        29.90R WCI  31
MUSKEGON       CLOUDY    41  30  65 NW12      29.95R
STURGIS        CLOUDY    37  32  85 W8        29.98R WCI  30
$$
MIZ016>042-020900-
NORTHERN LOWER MICHIGAN

CITY           SKY/WX    TMP DP  RH WIND       PRES   REMARKS
ALPENA         CLOUDY    35  29  78 W12G20    29.81R WCI  27
BEAVER ISLAND  CLOUDY    34  29  81 W12G20    29.87R WCI  25
BELLAIRE       LGT SNOW  34  31  91 NW5       29.89R WCI  30
CADILLAC       CLOUDY    32  29  89 W8        29.87R WCI  25
CHARLEVOIX     CLOUDY    37  29  74 W16G22    29.89R WCI  27
GAYLORD        CLOUDY    33  28  81 W12G18    29.83R WCI  24
HOUGHTON LAKE  CLOUDY    34  28  79 W14       29.87R WCI  25
OSCODA         PTCLDY    31  28  90 MISG      29.84R
PELLSTON       CLOUDY    35  27  72 NW13G20   29.84R WCI  26
TRAVERSE CITY  CLOUDY    36  27  69 W9        29.90R WCI  29
LUDINGTON      CLOUDY    36  30  79 NW6G16    29.93R WCI  31
$$
MIZ007>008-015-020900-
EASTERN UPPER MICHIGAN

CITY           SKY/WX    TMP DP  RH WIND       PRES   REMARKS
KINROSS        FLURRIES  34  32  93 W10       29.78R WCI  26
MACKINAC ISLAN CLOUDY    34  30  85 W18G25    29.81R WCI  23
NEWBERRY       LGT SNOW  32  31  97 W10       29.81R WCI  23
S. S. MARIE    LGT SNOW  34  32  92 NW7       29.77R FOG     WCI  28
$$
MIZ004>006-011>014-085-020900-
CENTRAL UPPER MICHIGAN

CITY           SKY/WX    TMP DP  RH WIND       PRES   REMARKS
MANISTIQUE     MOCLDY    31  27  86 W9G17     29.87R WCI  23
ESCANABA       CLOUDY    31  25  78 W8        29.93R WCI  23
MENOMINEE      CLOUDY    33  24  69 VRB6      29.96R WCI  28
SAWYER-GWINN   CLOUDY    28  24  85 NW14      29.90R WCI  17
$$
MIZ001>003-009>011-084-020900-
WESTERN UPPER MICHIGAN

CITY           SKY/WX    TMP DP  RH WIND       PRES   REMARKS
IRON MOUNTAIN  MOCLDY    28  20  71 NW10      29.92R WCI  19
HOUGHTON       LGT SNOW  30  26  85 NW15      29.91R FOG     WCI  19
COPPER HARBOR    N/A     34  32  92 N20       29.90R WCI  23
IRONWOOD       CLOUDY    28  25  88 NW7       29.98R WCI  21
$$

ABBREVIATIONS USED IN REMARKS
   TC - TEMPERATURE IN CELSIUS
  WCI - WIND CHILL INDEX
   HX - HEAT INDEX
  VSB - VISIBILITY





USA.gov is the U.S. government's official web portal to all federal, state and local government web resources and services.